This demonstration page uses our WeatherBlox Daily Observations layout. Learn more.

Left ArrowRight Arrow

41.86663, -103.66717

Hourly Observations for March 26, 2018

Temp ( °F °C ) Dew Point ( °F °C ) Humidity (%) Winds ( mph kmh ) Pressure ( in mb ) Visibility ( mi km ) Precip ( " mm )
12:13 am 00:13 Mostly Cloudy 37 2.8 36 2.2 96 96 SE 14 22 29.97 1015 8 13 N/A
12:53 am 00:53 Cloudy 37 2.8 35 1.7 93 93 ESE 13 20 29.83 1010 7 11 N/A
2:53 am 02:53 Cloudy 36 2.2 35 1.7 97 97 SE 5 7 29.83 1010 9 14 N/A
3:46 am 03:46 Cloudy 36 2 36 2 100 100 ESE 9 15 29.91 1013 8 13 N/A
3:53 am 03:53 Cloudy 36 2.2 35 1.7 97 97 E 10 17 29.82 1010 7 11 N/A
4:03 am 04:03 Cloudy 36 2.2 35 1.7 97 97 ESE 12 19 29.91 1013 7 11 N/A
4:53 am 04:53 Cloudy 36 2.2 35 1.7 97 97 SE 6 9 29.83 1010 8 13 N/A
5:53 am 05:53 Cloudy 36 2.2 35 1.7 97 97 E 5 7 29.86 1011 8 13 N/A
6:04 am 06:04 Cloudy 36 2 36 2 100 100 E 5 7 29.94 1014 8 13 N/A
6:20 am 06:20 Cloudy 36 2 36 2 100 100 ESE 5 7 29.94 1014 7 11 N/A
6:32 am 06:32 Cloudy 36 2 36 2 100 100 N N/A 29.97 1015 7 11 N/A
6:53 am 06:53 Cloudy 37 2.8 35 1.7 93 93 E 5 7 29.88 1012 7 11 N/A
7:33 am 07:33 Cloudy with Mist and Fog 37 2.8 35 1.7 93 93 E 8 13 29.97 1015 6 10 N/A
7:53 am 07:53 Cloudy 37 2.8 36 2.2 96 96 E 7 11 29.90 1013 7 11 N/A
8:10 am 08:10 Cloudy 37 3 36 2 93 93 E 8 13 29.97 1015 7 11 N/A
8:25 am 08:25 Cloudy 38 3.3 36 2.2 93 93 ENE 7 11 29.94 1014 8 13 N/A
8:53 am 08:53 Cloudy 39 3.9 36 2.2 89 89 E 3 6 29.89 1012 10 16 N/A
9:53 am 09:53 Cloudy 41 5 37 2.8 86 86 SSW 3 6 29.91 1013 10 16 N/A
10:35 am 10:35 Mostly Sunny 44 6.7 38 3.3 79 79 N N/A 29.94 1014 10 16 N/A
10:53 am 10:53 Partly Cloudy 47 8.3 37 2.8 69 69 VRB 5 7 29.90 1012 10 16 N/A
11:05 am 11:05 Mostly Cloudy 47 8.3 37 2.8 69 69 NW 10 17 29.88 1012 10 16 N/A
11:39 am 11:39 Cloudy 48 8.9 36 2.2 63 63 NW 10 17 29.85 1011 10 16 N/A
11:53 am 11:53 Mostly Cloudy 50 10 36 2.2 59 59 NNW 9 15 29.88 1012 10 16 N/A
12:53 pm 12:53 Mostly Cloudy 52 11.1 36 2.2 55 55 NW 16 26 29.88 1012 10 16 N/A
1:53 pm 13:53 Partly Cloudy 53 11.7 34 1.1 48 48 NNW 14 22 29.86 1011 10 16 N/A
2:53 pm 14:53 Mostly Cloudy 53 11.7 30 -1.1 41 41 NW 13 20 29.86 1011 10 16 N/A
3:53 pm 15:53 Cloudy 52 11.1 32 undefined 47 47 NNW 21 33 29.88 1012 10 16 N/A
4:53 pm 16:53 Cloudy 51 10.6 31 -0.6 46 46 NNW 14 22 29.90 1013 10 16 N/A
5:53 pm 17:53 Mostly Sunny 48 8.9 28 -2.2 46 46 NNW 18 30 29.95 1014 10 16 N/A
6:53 pm 18:53 Mostly Sunny 44 6.7 27 -2.8 51 51 NNW 21 33 30.01 1016 10 16 N/A
7:53 pm 19:53 Partly Cloudy 39 3.9 26 -3.3 60 60 NNW 9 15 30.06 1018 10 16 N/A
8:53 pm 20:53 Clear 35 1.7 26 -3.3 70 70 N 9 15 30.11 1020 10 16 N/A
9:53 pm 21:53 Clear 33 0.6 26 -3.3 75 75 NNW 10 17 30.14 1021 10 16 N/A
10:53 pm 22:53 Clear 32 undefined 25 -3.9 75 75 WNW 3 6 30.14 1021 10 16 N/A
11:53 pm 23:53 Clear 31 -0.6 26 -3.3 82 82 WNW 7 11 30.15 1021 10 16 N/A

Powered by AerisWeather